QPF
0.01 0.01 0.01 0.00 0.00 0.00 0.00 0.00 0.00 0.00 0.00 0.00 0.00 0.00 0.00 0.00 0.00 0.00 0.00 0.00 0.00 0.00 0.00 0.00 0.00 0.00 0.00 0.00 0.00 0.00 0.00 0.00 0.00 0.00 0.00 0.00 0.00 0.00 0.00 0.00 0.00 0.00 0.00
0.00 0.01 0.01 0.00 0.00 0.00 0.00 0.00 0.00 0.00 0.00 0.00 0.00 0.00 0.00 0.00 0.00 0.00 0.00 0.00 0.00 0.00 0.00 0.00 0.00 0.00 0.00 0.00 0.00 0.00 0.00 0.00 0.00 0.00 0.00 0.00 0.00 0.00 0.00 0.00 0.00 0.00 0.00
0.00 0.00 0.00 0.00 0.00 0.00 0.00 0.00 0.00 0.00 0.00 0.00 0.00 0.00 0.00 0.00 0.00 0.00 0.00 0.00 0.00 0.00 0.00 0.00 0.00 0.00 0.00 0.00 0.00 0.00 0.00 0.00 0.00 0.00 0.00 0.00 0.00 0.00 0.00 0.00 0.00 0.00 0.00
0.00 0.00 0.00 0.00 0.00 0.00 0.00 0.00 0.00 0.00 0.00 0.00 0.00 0.00 0.00 0.00 0.00 0.00 0.00 0.00 0.00 0.00 0.00 0.00 0.00 0.00 0.00 0.00 0.00 0.00 0.00 0.00 0.00 0.00 0.00 0.00 0.00 0.00 0.00 0.00 0.00 0.00 0.00
0.00 0.00 0.00 0.00 0.00 0.00 0.00 0.00 0.00 0.00 0.00 0.00 0.00 0.00 0.00 0.00 0.00 0.00 0.00 0.00 0.00 0.00 0.00 0.00 0.00 0.00 0.00 0.00 0.00 0.00 0.00 0.00 0.00 0.00 0.00 0.00 0.00 0.00 0.00 0.00 0.00 0.00 0.00
0.00 0.00 0.00 0.00 0.00 0.00 0.00 0.00 0.00 0.00 0.00 0.00 0.00 0.00 0.00 0.00 0.00 0.00 0.00 0.00 0.00 0.00 0.00 0.00 0.00 0.00 0.00 0.00 0.00 0.00 0.00 0.00 0.00 0.00 0.00 0.00 0.00 0.00 0.00 0.00 0.00 0.00 0.00
0.00 0.00 0.00 0.00 0.00 0.00 0.00 0.00 0.00 0.00 0.00 0.00 0.00 0.00 0.00 0.00 0.00 0.00 0.00 0.00 0.00 0.00 0.00 0.00 0.00 0.00 0.00 0.00 0.00 0.00 0.00 0.00 0.00 0.00 0.00 0.00 0.00 0.00 0.00 0.00 0.00 0.00 0.00
0.00 0.00 0.00 0.00 0.00 0.00 0.00 0.00 0.00 0.00 0.00 0.00 0.00 0.00 0.01 0.01 0.00 0.00 0.00 0.00 0.00 0.00 0.00 0.00 0.00 0.00 0.00 0.00 0.00 0.00 0.00 0.00 0.00 0.00 0.00 0.00 0.00 0.00 0.00 0.00 0.00 0.00 0.00
0.00 0.00 0.00 0.00 0.00 0.00 0.00 0.00 0.00 0.00 0.06 0.01 0.00 0.08 0.12 0.09 0.08 0.02 0.00 0.00 0.00 0.00 0.00 0.00 0.00 0.00 0.00 0.00 0.00 0.00 0.00 0.00 0.00 0.00 0.00 0.00 0.00 0.00 0.00 0.00 0.00 0.00 0.00
0.00 0.00 0.00 0.00 0.00 0.00 0.00 0.00 0.00 0.00 0.11 0.11 0.01 0.00 0.01 0.08 0.13 0.11 0.02 0.00 0.00 0.00 0.00 0.00 0.00 0.00 0.00 0.00 0.00 0.00 0.00 0.00 0.00 0.00 0.00 0.00 0.00 0.00 0.01 0.01 0.00 0.00 0.00
0.00 0.00 0.00 0.00 0.00 0.00 0.02 0.05 0.04 0.03 0.07 0.10 0.02 0.05 0.00 0.01 0.02 0.03 0.02 0.03 0.00 0.00 0.00 0.00 0.00 0.00 0.00 0.00 0.00 0.00 0.00 0.00 0.00 0.00 0.00 0.00 0.00 0.00 0.00 0.01 0.02 0.02 0.01
0.00 0.00 0.00 0.00 0.00 0.01 0.02 0.04 0.04 0.06 0.07 0.09 0.06 0.04 0.04 0.04 0.02 0.02 0.01 0.02 0.05 0.01 0.00 0.00 0.00 0.00 0.00 0.00 0.00 0.00 0.00 0.00 0.00 0.00 0.00 0.00 0.00 0.00 0.00 0.00 0.00 0.01 0.03
0.00 0.00 0.00 0.00 0.00 0.00 0.01 0.03 0.03 0.03 0.05 0.04 0.05 0.03 0.03 0.01 0.02 0.04 0.03 0.01 0.01 0.01 0.00 0.00 0.00 0.00 0.00 0.00 0.00 0.00 0.00 0.00 0.00 0.00 0.00 0.00 0.00 0.00 0.00 0.00 0.00 0.00 0.00
0.00 0.00 0.00 0.00 0.00 0.00 0.00 0.00 0.02 0.03 0.03 0.04 0.06 0.04 0.02 0.02 0.02 0.02 0.01 0.00 0.00 0.00 0.00 0.00 0.00 0.00 0.00 0.00 0.00 0.00 0.00 0.00 0.00 0.00 0.00 0.00 0.00 0.00 0.00 0.00 0.00 0.00 0.00
0.00 0.00 0.00 0.00 0.00 0.00 0.00 0.01 0.02 0.02 0.02 0.02 0.02 0.03 0.03 0.02 0.03 0.02 0.01 0.01 0.00 0.00 0.00 0.00 0.00 0.00 0.00 0.00 0.00 0.00 0.00 0.00 0.00 0.00 0.00 0.00 0.00 0.00 0.00 0.00 0.00 0.00 0.00
0.00 0.00 0.00 0.00 0.00 0.00 0.01 0.02 0.02 0.01 0.03 0.03 0.04 0.03 0.03 0.02 0.04 0.03 0.02 0.00 0.00 0.00 0.00 0.00 0.00 0.00 0.00 0.00 0.00 0.00 0.00 0.00 0.00 0.00 0.00 0.00 0.00 0.00 0.00 0.00 0.00 0.00 0.00
0.00 0.00 0.00 0.00 0.00 0.00 0.00 0.01 0.01 0.01 0.01 0.02 0.03 0.02 0.02 0.02 0.03 0.03 0.02 0.01 0.00 0.00 0.01 0.01 0.00 0.00 0.00 0.00 0.00 0.00 0.00 0.00 0.00 0.00 0.00 0.00 0.00 0.00 0.00 0.00 0.00 0.00 0.00
0.00 0.00 0.00 0.00 0.00 0.00 0.00 0.00 0.00 0.00 0.00 0.00 0.01 0.02 0.02 0.02 0.04 0.03 0.01 0.01 0.01 0.01 0.02 0.01 0.01 0.00 0.00 0.00 0.00 0.00 0.00 0.00 0.00 0.00 0.00 0.00 0.00 0.00 0.00 0.00 0.00 0.00 0.00
0.00 0.00 0.00 0.00 0.00 0.00 0.00 0.00 0.00 0.00 0.00 0.00 0.01 0.01 0.01 0.01 0.00 0.00 0.00 0.01 0.02 0.02 0.02 0.01 0.00 0.00 0.00 0.00 0.00 0.00 0.00 0.00 0.00 0.00 0.00 0.00 0.00 0.00 0.00 0.00 0.00 0.00 0.00
0.00 0.00 0.00 0.00 0.00 0.00 0.00 0.00 0.00 0.00 0.00 0.00 0.00 0.00 0.00 0.00 0.00 0.01 0.01 0.01 0.01 0.01 0.00 0.00 0.00 0.00 0.00 0.00 0.00 0.00 0.00 0.00 0.00 0.00 0.00 0.00 0.00 0.00 0.00 0.00 0.00 0.00 0.00
0.00 0.00 0.00 0.00 0.00 0.00 0.00 0.00 0.00 0.00 0.00 0.00 0.00 0.00 0.00 0.00 0.00 0.00 0.00 0.00 0.00 0.00 0.00 0.00 0.00 0.00 0.00 0.00 0.00 0.00 0.00 0.00 0.00 0.00 0.00 0.00 0.00 0.00 0.00 0.00 0.00 0.00 0.00
0.00 0.00 0.00 0.00 0.00 0.00 0.00 0.00 0.00 0.00 0.00 0.00 0.00 0.00 0.00 0.01 0.01 0.01 0.00 0.00 0.00 0.00 0.00 0.00 0.00 0.00 0.00 0.00 0.00 0.00 0.00 0.00 0.00 0.00 0.00 0.00 0.00 0.00 0.00 0.00 0.00 0.00 0.00
0.00 0.00 0.00 0.00 0.00 0.00 0.00 0.00 0.00 0.00 0.00 0.00 0.00 0.00 0.01 0.02 0.01 0.01 0.01 0.00 0.00 0.00 0.00 0.00 0.00 0.00 0.00 0.00 0.00 0.00 0.00 0.00 0.00 0.00 0.00 0.00 0.00 0.00 0.00 0.00 0.00 0.00 0.00
0.00 0.00 0.00 0.00 0.00 0.00 0.00 0.01 0.00 0.00 0.00 0.00 0.01 0.01 0.02 0.02 0.01 0.01 0.00 0.00 0.00 0.00 0.00 0.00 0.00 0.00 0.00 0.00 0.00 0.00 0.00 0.00 0.00 0.00 0.00 0.00 0.00 0.00 0.00 0.00 0.00 0.00 0.00
0.00 0.00 0.00 0.00 0.00 0.01 0.03 0.03 0.04 0.01 0.00 0.00 0.01 0.01 0.02 0.01 0.01 0.01 0.00 0.00 0.00 0.00 0.00 0.00 0.00 0.00 0.00 0.00 0.00 0.00 0.00 0.00 0.00 0.00 0.00 0.00 0.00 0.00 0.00 0.00 0.00 0.00 0.00
0.00 0.00 0.00 0.00 0.01 0.02 0.02 0.02 0.03 0.02 0.01 0.01 0.00 0.01 0.00 0.00 0.00 0.00 0.00 0.00 0.00 0.00 0.00 0.00 0.00 0.00 0.00 0.00 0.00 0.00 0.00 0.00 0.00 0.00 0.00 0.00 0.00 0.00 0.00 0.00 0.00 0.00 0.00
MSLP
1016.33 1017.00 1017.11 1017.44 1018.07 1018.55 1019.30 1019.87 1019.59 1020.17 1020.54 1020.98 1021.40 1021.56 1021.35 1021.36 1021.89 1022.94 1024.25 1024.95 1025.09 1025.42 1025.80 1026.11 1026.35 1026.75 1027.19 1027.29 1027.58 1027.76 1027.93 1028.06 1028.38 1028.68 1028.90 1029.07 1029.30 1029.45 1029.39 1029.50 1029.61 1029.58 1029.49
1016.48 1016.62 1017.21 1017.46 1017.74 1018.19 1018.75 1019.20 1019.65 1020.14 1020.59 1020.91 1021.41 1021.52 1021.61 1021.86 1022.00 1022.82 1024.02 1024.91 1025.23 1025.43 1025.79 1026.23 1026.39 1026.73 1026.99 1027.13 1027.46 1027.69 1027.84 1028.04 1028.27 1028.66 1028.89 1029.03 1029.21 1029.38 1029.43 1029.52 1029.63 1029.60 1029.58
1016.36 1016.71 1016.92 1016.87 1017.17 1017.57 1018.35 1018.85 1019.71 1019.93 1020.31 1020.74 1021.26 1021.50 1021.73 1022.02 1022.11 1022.50 1023.52 1024.22 1024.99 1025.52 1025.77 1025.88 1026.28 1026.59 1026.86 1026.94 1027.31 1027.59 1027.77 1028.00 1028.13 1028.38 1028.71 1028.92 1029.09 1029.28 1029.44 1029.46 1029.52 1029.63 1029.57
1016.64 1016.82 1016.75 1016.88 1017.03 1017.57 1018.22 1018.84 1019.38 1019.87 1020.21 1020.61 1021.10 1021.52 1021.64 1021.96 1022.44 1022.64 1022.80 1023.44 1024.31 1024.82 1025.68 1025.85 1026.13 1026.37 1026.63 1026.91 1027.17 1027.43 1027.66 1027.85 1028.00 1028.09 1028.39 1028.74 1028.90 1029.09 1029.24 1029.34 1029.44 1029.35 1029.51
1016.59 1016.74 1016.93 1017.27 1017.47 1017.89 1018.39 1018.94 1019.30 1019.86 1020.33 1020.64 1021.11 1021.46 1021.50 1021.80 1022.39 1022.55 1022.61 1022.97 1023.34 1023.78 1024.50 1025.32 1025.84 1026.06 1026.33 1026.55 1026.83 1027.14 1027.39 1027.59 1027.78 1027.93 1028.16 1028.52 1028.64 1028.82 1029.00 1029.13 1029.28 1029.23 1029.28
1016.57 1016.59 1016.90 1017.35 1017.82 1018.35 1018.89 1019.09 1019.37 1019.90 1020.31 1020.66 1020.84 1021.35 1021.70 1021.83 1022.22 1022.33 1022.56 1022.79 1022.99 1023.35 1023.49 1024.06 1025.25 1025.71 1026.09 1026.29 1026.37 1026.46 1026.70 1026.94 1027.39 1027.60 1027.78 1028.10 1028.36 1028.48 1028.61 1028.79 1028.99 1029.09 1029.10
1016.02 1016.15 1016.42 1016.97 1017.77 1018.21 1018.54 1018.99 1019.52 1019.90 1020.27 1020.82 1021.00 1021.48 1021.77 1022.02 1022.03 1022.09 1022.20 1022.44 1022.68 1022.95 1023.25 1023.44 1024.03 1024.48 1025.08 1025.53 1025.76 1025.84 1025.94 1026.07 1026.43 1026.75 1027.11 1027.47 1027.84 1028.02 1028.11 1028.36 1028.57 1028.76 1028.59
1015.99 1016.25 1016.38 1017.29 1017.55 1018.13 1018.51 1019.07 1019.52 1019.77 1020.25 1020.80 1020.78 1021.00 1021.30 1021.92 1021.78 1021.66 1021.58 1021.94 1022.22 1022.45 1022.68 1023.09 1023.21 1023.41 1023.66 1024.59 1025.12 1025.35 1025.39 1025.42 1025.67 1025.95 1026.36 1026.79 1027.16 1027.40 1027.55 1027.73 1027.89 1028.21 1028.18
1015.93 1015.94 1016.65 1016.94 1017.56 1018.00 1018.30 1018.92 1019.26 1019.73 1020.13 1020.82 1020.79 1020.53 1020.76 1020.67 1020.71 1020.90 1021.41 1021.53 1021.76 1022.00 1022.12 1022.45 1022.87 1023.22 1023.40 1023.51 1023.92 1024.48 1024.90 1025.07 1025.20 1025.30 1025.55 1025.97 1026.19 1026.49 1026.78 1026.96 1027.14 1027.32 1027.56
1015.82 1015.79 1016.38 1017.32 1017.57 1017.69 1018.21 1018.63 1019.24 1019.35 1019.77 1020.35 1020.92 1020.71 1020.61 1020.60 1020.50 1020.73 1020.70 1021.07 1021.22 1021.58 1021.85 1021.94 1022.28 1023.02 1022.98 1023.24 1023.26 1023.30 1023.82 1024.33 1024.75 1024.96 1025.12 1025.31 1025.44 1025.66 1025.98 1026.21 1026.33 1026.51 1026.86
1015.84 1016.04 1016.42 1017.51 1017.82 1017.77 1018.06 1018.51 1019.13 1018.92 1019.38 1020.01 1020.41 1020.21 1020.25 1020.19 1020.34 1020.50 1020.06 1020.26 1020.57 1020.82 1020.94 1021.49 1022.05 1022.46 1022.68 1023.07 1023.00 1022.99 1023.27 1023.80 1024.05 1024.41 1024.63 1024.88 1025.03 1025.14 1025.15 1025.22 1025.39 1025.50 1025.74
1015.91 1016.25 1016.58 1017.02 1017.34 1017.39 1018.06 1018.30 1018.50 1018.93 1019.10 1019.45 1019.80 1019.62 1019.70 1019.74 1019.66 1019.90 1019.83 1019.68 1019.97 1020.22 1020.47 1021.18 1021.77 1021.79 1021.95 1022.12 1022.43 1022.54 1022.43 1022.97 1023.53 1023.97 1024.25 1024.45 1024.64 1024.69 1024.80 1024.74 1024.69 1024.67 1024.71
1015.14 1015.62 1015.91 1016.25 1016.65 1016.92 1017.65 1017.85 1018.04 1018.19 1018.54 1018.95 1019.28 1019.00 1018.84 1018.83 1019.09 1019.33 1019.64 1019.42 1019.51 1019.71 1020.52 1021.19 1021.22 1021.34 1021.22 1021.32 1021.37 1021.48 1021.91 1022.52 1023.04 1023.38 1023.64 1023.85 1024.03 1024.26 1024.30 1024.35 1024.39 1024.35 1024.36
1013.68 1014.55 1015.11 1015.51 1015.95 1016.32 1017.02 1017.18 1017.47 1017.75 1017.98 1018.27 1018.52 1018.29 1018.05 1018.19 1018.53 1018.84 1018.95 1019.06 1019.30 1019.94 1020.23 1020.05 1020.23 1020.14 1020.43 1020.66 1020.46 1021.03 1021.39 1022.11 1022.66 1023.06 1023.32 1023.52 1023.74 1023.99 1024.11 1024.13 1024.17 1024.18 1024.12
1012.09 1013.14 1014.05 1014.67 1015.15 1015.39 1015.98 1016.45 1016.95 1016.95 1017.07 1017.45 1017.40 1017.46 1017.58 1017.62 1017.94 1018.15 1018.15 1018.47 1019.03 1019.31 1019.29 1019.10 1019.54 1019.17 1019.29 1019.50 1020.35 1020.86 1021.22 1021.80 1022.29 1022.69 1022.96 1023.39 1023.46 1023.68 1023.81 1023.82 1023.81 1023.78 1023.82
1011.03 1011.76 1012.58 1013.34 1014.16 1014.61 1015.20 1015.42 1015.59 1015.92 1016.10 1016.19 1016.48 1016.75 1016.74 1016.83 1017.11 1017.27 1017.48 1017.88 1018.38 1018.84 1018.76 1018.90 1018.94 1018.61 1018.81 1019.42 1020.20 1020.51 1020.84 1021.62 1021.99 1022.35 1022.63 1022.86 1023.19 1023.32 1023.55 1023.54 1023.47 1023.46 1023.48
1010.06 1010.40 1011.16 1011.88 1012.50 1013.16 1013.82 1014.15 1014.32 1014.60 1014.98 1015.21 1015.59 1015.56 1015.61 1015.81 1016.02 1016.43 1016.93 1017.39 1017.81 1018.36 1018.37 1018.55 1018.94 1018.85 1019.32 1019.57 1019.93 1020.22 1020.46 1020.99 1021.08 1021.66 1021.94 1022.42 1022.71 1022.83 1022.95 1023.03 1023.08 1023.02 1023.06
1009.02 1009.75 1010.20 1010.74 1011.22 1011.70 1012.24 1012.60 1012.78 1013.14 1013.61 1013.77 1013.85 1014.07 1014.31 1014.76 1015.11 1015.74 1016.33 1016.96 1017.23 1017.71 1018.01 1018.32 1019.13 1018.97 1019.28 1019.41 1019.57 1019.94 1019.90 1020.09 1020.27 1020.74 1021.62 1022.01 1022.11 1022.24 1022.38 1022.55 1022.53 1022.53 1022.57
1008.12 1008.73 1009.35 1009.76 1010.21 1010.68 1011.16 1011.39 1011.70 1011.99 1012.20 1012.37 1012.59 1012.83 1013.23 1013.71 1014.26 1015.08 1015.82 1016.10 1016.46 1016.94 1017.19 1017.57 1018.15 1018.50 1018.82 1019.00 1019.32 1019.83 1020.15 1020.48 1020.31 1020.55 1021.18 1021.24 1021.35 1021.51 1021.74 1021.86 1021.87 1021.88 1022.00
1007.16 1007.69 1008.21 1008.77 1009.28 1009.75 1010.11 1010.38 1010.66 1010.92 1011.18 1011.50 1011.83 1012.07 1012.30 1012.91 1013.76 1014.46 1014.92 1015.12 1015.22 1016.13 1016.75 1017.15 1017.48 1018.03 1018.20 1018.71 1019.14 1019.28 1019.74 1019.96 1019.94 1019.58 1019.68 1020.19 1020.58 1020.99 1021.17 1021.24 1021.22 1021.22 1021.23
1005.86 1006.45 1006.97 1007.39 1007.91 1008.43 1008.79 1009.25 1009.67 1010.07 1010.53 1010.82 1011.20 1011.80 1012.42 1012.67 1013.17 1013.52 1013.93 1014.06 1014.57 1015.10 1015.75 1016.35 1016.95 1017.38 1017.59 1017.95 1018.29 1018.58 1019.12 1019.33 1019.24 1019.38 1019.54 1019.67 1019.80 1020.01 1020.04 1020.33 1020.26 1020.16 1020.35
1004.78 1005.22 1005.57 1005.98 1006.51 1007.01 1007.50 1008.10 1008.82 1009.61 1010.30 1010.77 1010.95 1011.22 1011.74 1012.32 1012.41 1012.43 1012.80 1012.95 1013.43 1013.94 1014.72 1015.43 1016.11 1016.57 1016.80 1017.18 1017.61 1018.03 1018.59 1018.81 1019.06 1018.90 1019.09 1019.45 1019.64 1019.60 1019.57 1019.39 1019.21 1019.48 1019.80
1003.83 1004.25 1004.65 1005.02 1005.28 1005.83 1006.42 1007.18 1007.96 1008.88 1009.55 1009.66 1009.97 1010.75 1011.49 1011.68 1011.73 1012.39 1013.11 1013.38 1013.92 1014.26 1014.55 1014.83 1015.81 1016.79 1017.41 1017.34 1017.15 1018.07 1018.41 1018.75 1018.88 1019.05 1019.33 1019.29 1019.40 1019.29 1019.19 1018.81 1018.78 1018.99 1019.19
1002.63 1003.15 1003.77 1004.18 1004.71 1005.01 1005.75 1006.73 1007.67 1008.51 1008.86 1009.21 1009.79 1010.46 1011.19 1011.90 1012.02 1012.99 1013.16 1013.89 1014.92 1015.89 1016.52 1016.82 1016.18 1016.95 1017.56 1018.03 1018.36 1018.36 1018.37 1018.63 1018.96 1019.42 1019.64 1019.20 1019.12 1018.74 1018.58 1018.50 1018.54 1018.56 1018.54
1001.99 1002.64 1003.52 1004.17 1004.67 1004.99 1005.72 1006.55 1007.61 1008.68 1009.58 1010.36 1010.77 1011.14 1011.61 1012.40 1013.08 1013.21 1013.72 1014.73 1015.85 1017.06 1016.83 1017.70 1019.06 1019.13 1019.38 1019.18 1019.66 1018.71 1018.95 1019.25 1019.18 1019.17 1019.10 1018.87 1018.74 1018.55 1018.36 1018.28 1018.18 1017.95 1018.09
1001.54 1002.40 1003.80 1004.76 1005.38 1005.86 1006.50 1006.85 1007.61 1008.79 1009.97 1011.02 1011.82 1012.43 1012.94 1013.30 1013.98 1014.04 1014.51 1015.65 1016.76 1017.40 1018.51 1017.73 1018.69 1018.94 1019.69 1020.48 1020.68 1019.71 1019.33 1019.45 1019.47 1019.42 1019.05 1019.21 1019.13 1019.09 1018.20 1017.81 1017.75 1017.83 1017.72
Thickness
5620 5616 5619 5620 5620 5621 5618 5617 5621 5618 5617 5615 5613 5612 5614 5614 5610 5603 5594 5592 5593 5593 5591 5591 5592 5590 5586 5588 5585 5586 5585 5584 5581 5577 5575 5574 5571 5569 5569 5567 5565 5564 5563
5614 5616 5615 5615 5616 5617 5617 5617 5616 5614 5612 5612 5609 5608 5607 5606 5604 5599 5591 5587 5588 5589 5588 5586 5587 5586 5585 5586 5584 5582 5581 5580 5577 5573 5570 5569 5567 5565 5563 5561 5560 5559 5557
5610 5610 5612 5614 5617 5617 5615 5615 5611 5612 5610 5608 5606 5604 5602 5600 5600 5598 5592 5589 5586 5585 5585 5587 5584 5584 5583 5584 5581 5579 5578 5575 5574 5571 5567 5565 5563 5560 5557 5557 5555 5553 5552
5604 5605 5609 5610 5612 5611 5611 5610 5609 5608 5608 5606 5602 5599 5599 5597 5594 5592 5592 5589 5585 5584 5581 5583 5582 5582 5581 5578 5577 5574 5573 5572 5570 5568 5565 5560 5558 5555 5553 5552 5549 5549 5546
5600 5599 5600 5602 5604 5604 5604 5603 5604 5603 5600 5601 5596 5595 5595 5594 5589 5588 5589 5588 5588 5587 5585 5583 5580 5580 5578 5576 5574 5572 5570 5568 5565 5563 5560 5556 5554 5551 5548 5546 5544 5544 5541
5595 5596 5596 5596 5596 5597 5596 5598 5600 5598 5596 5596 5594 5591 5589 5589 5586 5585 5584 5584 5585 5586 5587 5586 5579 5577 5575 5573 5573 5572 5570 5567 5562 5560 5556 5552 5548 5547 5545 5542 5539 5537 5535
5597 5597 5596 5594 5595 5596 5596 5596 5594 5593 5592 5589 5588 5585 5583 5582 5582 5582 5582 5583 5583 5584 5584 5584 5583 5579 5576 5574 5572 5571 5570 5567 5564 5558 5554 5549 5545 5543 5541 5538 5535 5531 5531
5596 5597 5599 5595 5595 5594 5595 5593 5591 5590 5588 5586 5583 5582 5577 5575 5578 5581 5583 5582 5582 5582 5583 5581 5582 5581 5581 5575 5570 5568 5567 5565 5561 5558 5554 5548 5543 5540 5536 5533 5531 5526 5524
5596 5596 5593 5594 5594 5593 5592 5590 5589 5586 5582 5579 5580 5581 5574 5577 5580 5582 5578 5581 5581 5581 5581 5581 5579 5577 5575 5574 5574 5568 5564 5560 5557 5554 5551 5547 5544 5539 5534 5531 5528 5524 5518
5594 5595 5593 5588 5589 5591 5589 5588 5584 5586 5583 5575 5573 5577 5579 5581 5576 5573 5580 5579 5580 5579 5580 5580 5578 5574 5573 5570 5567 5566 5564 5558 5553 5550 5546 5542 5540 5536 5532 5528 5524 5519 5514
5589 5589 5588 5583 5583 5586 5585 5584 5580 5584 5581 5574 5572 5575 5576 5579 5579 5575 5579 5580 5581 5580 5580 5578 5575 5573 5571 5567 5565 5562 5559 5555 5551 5546 5542 5537 5533 5530 5528 5524 5518 5514 5509
5585 5584 5583 5583 5581 5583 5579 5579 5580 5577 5577 5575 5573 5575 5575 5575 5577 5575 5577 5581 5579 5580 5579 5574 5571 5571 5571 5566 5561 5559 5558 5552 5547 5541 5536 5532 5527 5523 5519 5516 5512 5508 5504
5584 5584 5583 5582 5582 5581 5576 5576 5577 5578 5576 5572 5572 5577 5580 5581 5581 5579 5575 5579 5578 5578 5573 5570 5569 5567 5566 5562 5559 5557 5554 5548 5542 5536 5531 5526 5521 5515 5512 5508 5504 5500 5495
5596 5591 5584 5581 5579 5580 5575 5574 5575 5575 5574 5574 5574 5579 5582 5582 5581 5578 5576 5576 5571 5566 5567 5571 5568 5565 5561 5558 5556 5551 5547 5540 5533 5527 5523 5519 5515 5508 5503 5499 5494 5489 5484
5610 5601 5594 5588 5584 5584 5579 5577 5574 5576 5577 5577 5578 5578 5580 5582 5579 5578 5578 5574 5567 5565 5567 5571 5563 5564 5559 5555 5549 5543 5539 5533 5526 5520 5516 5508 5505 5499 5493 5488 5484 5479 5474
5616 5609 5604 5597 5591 5586 5581 5580 5580 5580 5579 5582 5582 5579 5580 5582 5578 5578 5575 5571 5566 5560 5559 5563 5559 5559 5552 5545 5540 5534 5528 5523 5517 5511 5505 5501 5493 5488 5481 5477 5473 5468 5462
5620 5617 5612 5607 5600 5595 5591 5588 5588 5585 5582 5583 5581 5582 5582 5582 5579 5576 5572 5566 5562 5555 5553 5553 5548 5547 5540 5535 5531 5524 5519 5513 5509 5503 5499 5491 5484 5479 5473 5468 5463 5458 5450
5624 5619 5614 5610 5607 5604 5599 5595 5593 5593 5588 5587 5588 5586 5584 5583 5580 5574 5567 5560 5555 5548 5545 5545 5532 5534 5528 5526 5522 5516 5512 5507 5502 5497 5489 5480 5475 5470 5464 5457 5451 5444 5438
5625 5620 5616 5612 5608 5604 5600 5599 5597 5594 5592 5590 5588 5588 5585 5582 5577 5569 5561 5557 5551 5543 5538 5537 5532 5528 5522 5517 5512 5504 5498 5491 5488 5483 5477 5472 5466 5460 5452 5445 5439 5432 5425
5626 5622 5618 5613 5610 5606 5603 5601 5598 5595 5591 5587 5583 5582 5582 5578 5571 5563 5557 5553 5549 5538 5531 5529 5526 5519 5515 5507 5499 5495 5486 5480 5476 5474 5470 5463 5455 5447 5439 5433 5426 5419 5412
5629 5624 5619 5617 5612 5608 5605 5602 5596 5592 5587 5583 5577 5574 5571 5570 5564 5560 5554 5552 5545 5540 5533 5525 5517 5513 5507 5498 5492 5486 5477 5471 5467 5461 5455 5450 5444 5437 5430 5423 5415 5407 5399
5629 5625 5621 5618 5614 5611 5607 5598 5592 5585 5578 5574 5573 5571 5567 5560 5559 5557 5552 5550 5545 5538 5532 5522 5514 5506 5500 5493 5485 5477 5468 5461 5453 5449 5444 5435 5428 5423 5416 5408 5403 5393 5382
5627 5623 5620 5616 5614 5610 5603 5595 5586 5582 5576 5574 5572 5566 5557 5556 5556 5547 5539 5534 5528 5524 5519 5516 5504 5491 5482 5476 5472 5462 5453 5445 5439 5431 5424 5420 5412 5407 5400 5394 5387 5377 5365
5629 5624 5619 5615 5610 5608 5597 5589 5579 5574 5573 5569 5562 5555 5549 5542 5541 5531 5530 5520 5509 5499 5493 5484 5487 5475 5466 5456 5447 5443 5439 5431 5422 5411 5401 5401 5396 5395 5387 5379 5368 5358 5349
5627 5622 5613 5608 5604 5599 5588 5581 5572 5561 5552 5545 5542 5538 5534 5526 5519 5517 5512 5502 5489 5477 5478 5467 5451 5442 5436 5437 5427 5426 5417 5408 5402 5395 5387 5383 5380 5376 5371 5363 5351 5342 5332
5623 5614 5596 5587 5581 5577 5572 5568 5561 5550 5537 5528 5521 5515 5510 5505 5498 5497 5491 5480 5468 5461 5447 5450 5437 5430 5417 5406 5399 5399 5395 5388 5380 5374 5369 5361 5355 5346 5354 5346 5335 5322 5312